Greenville/Spartanburg, SC

2:30 PM EDT on August 16, 2017 (GMT -0400)
Greenville-Spartanburg International

Weather History for KGSP - January, 2012

Change the Weather History Date:

Thursday, January 26, 2012

  Actual Average Record
Temperature  
Mean Temperature 56 °F 43 °F  
Max Temperature 62 °F 53 °F 79 °F (1909)
Min Temperature 49 °F 32 °F 8 °F (1940)
Degree Days  
Heating Degree Days 9 22  
Month to date heating degree days 514 595  
Since 1 July heating degree days 1554 1798  
Cooling Degree Days 0 0  
Month to date cooling degree days 0 0  
Year to date cooling degree days 0 0  
Growing Degree Days 6 (Base 50)    
Moisture  
Dew Point 50 °F    
Average Humidity 77    
Maximum Humidity 93    
Minimum Humidity 61    
Precipitation  
Precipitation 0.08 in 0.12 in 1.78 in (1976)
Month to date precipitation 3.86 3.21  
Year to date precipitation 3.86 3.21  
Snow  
Snow 0.00 in 0.10 in 5.00 in (1921)
Month to date snowfall 0.0 2.0  
Since 1 July snowfall 0.0 2.5  
Snow Depth 0.00 in    
Sea Level Pressure  
Sea Level Pressure 29.94 in    
Wind  
Wind Speed 2 mph (ESE)    
Max Wind Speed 20 mph    
Max Gust Speed 25 mph    
Visibility 8 miles    
Events Rain    
T = Trace of Precipitation, MM = Missing Value Source: NWS Daily Summary

Daily Weather History Graph

Daily Weather History Graph

Search for Another Location

Airport or City:

Trip Planner

Search our weather history database for the weather conditions in past years. The results will help you decide how hot, cold, wet, or windy it might be!

Date:

Astronomy

Jan. 26, 2012 Rise Set
Actual Time 7:31 AM EST 5:51 PM EST
Civil Twilight 7:04 AM EST 6:18 PM EST
Nautical Twilight 6:34 AM EST 6:48 PM EST
Astronomical Twilight 6:04 AM EST 7:18 PM EST
Moon 9:09 AM EST (1/26) 9:30 PM EST (1/26)
Length of Visible Light 11h 13m
Length of Day
10h 19m
Waxing Crescent, 12% of the Moon is Illuminated
Jan 26
Waxing Crescent
Jan 30
First Quarter
Feb 7
Full
Feb 14
Last Quarter
Feb 21
New

Hourly Weather History & Observations

Time (EST) Temp. Dew Point Humidity Pressure Visibility Wind Dir Wind Speed Gust Speed Precip Events Conditions
12:53 AM 54.0 °F 44.1 °F 69% 30.14 in 10.0 mi Calm Calm - N/A   Overcast
1:53 AM 54.0 °F 43.0 °F 66% 30.13 in 10.0 mi Calm Calm - N/A   Overcast
2:53 AM 52.0 °F 42.1 °F 69% 30.12 in 10.0 mi Calm Calm - N/A   Partly Cloudy
3:53 AM 52.0 °F 43.0 °F 71% 30.11 in 10.0 mi Calm Calm - N/A   Overcast
4:10 AM 53.6 °F 42.8 °F 67% 30.12 in 10.0 mi NE 3.5 mph - N/A   Overcast
4:53 AM 53.1 °F 43.0 °F 69% 30.10 in 10.0 mi NNE 3.5 mph - 0.00 in Rain Light Rain
5:53 AM 52.0 °F 44.1 °F 74% 30.10 in 10.0 mi Calm Calm - 0.01 in   Overcast
6:14 AM 51.8 °F 44.6 °F 76% 30.10 in 10.0 mi North 3.5 mph - N/A   Overcast
6:53 AM 53.1 °F 43.0 °F 69% 30.09 in 10.0 mi Calm Calm - N/A   Overcast
7:53 AM 53.1 °F 44.1 °F 71% 30.09 in 10.0 mi Calm Calm - N/A   Overcast
8:53 AM 53.1 °F 46.0 °F 77% 30.08 in 10.0 mi Calm Calm - 0.00 in Rain Light Rain
9:22 AM 53.6 °F 46.4 °F 77% 30.08 in 10.0 mi Calm Calm - 0.00 in   Overcast
9:53 AM 53.1 °F 46.0 °F 77% 30.07 in 10.0 mi Calm Calm - 0.00 in   Overcast
10:53 AM 53.1 °F 50.0 °F 89% 30.05 in 6.0 mi Calm Calm - N/A   Overcast
11:53 AM 55.9 °F 51.1 °F 84% 30.01 in 9.0 mi Calm Calm - N/A   Overcast
12:53 PM 55.9 °F 52.0 °F 87% 29.97 in 10.0 mi Calm Calm - N/A   Overcast
1:53 PM 55.9 °F 52.0 °F 87% 29.94 in 8.0 mi Calm Calm - N/A   Overcast
2:53 PM 57.9 °F 53.1 °F 84% 29.91 in 10.0 mi Calm Calm - N/A   Overcast
3:53 PM 59.0 °F 54.0 °F 83% 29.89 in 10.0 mi Calm Calm - N/A   Overcast
4:53 PM 57.9 °F 55.0 °F 90% 29.88 in 10.0 mi Calm Calm - N/A   Overcast
5:53 PM 57.9 °F 55.0 °F 90% 29.86 in 3.0 mi ENE 3.5 mph - N/A   Overcast
6:18 PM 57.2 °F 55.4 °F 94% 29.85 in 6.0 mi NE 3.5 mph - N/A   Mostly Cloudy
6:53 PM 55.9 °F 54.0 °F 93% 29.82 in 6.0 mi ENE 3.5 mph - N/A   Scattered Clouds
7:53 PM 55.9 °F 54.0 °F 93% 29.81 in 5.0 mi Calm Calm - N/A   Mostly Cloudy
8:53 PM 55.9 °F 54.0 °F 93% 29.77 in 5.0 mi Calm Calm - 0.00 in   Mostly Cloudy
9:32 PM 55.4 °F 55.4 °F 100% 29.75 in 2.5 mi SSE 5.8 mph - 0.04 in Rain Light Rain
9:41 PM 55.4 °F 55.4 °F 100% 29.76 in 3.0 mi SSE 6.9 mph - 0.05 in Rain Light Rain
9:53 PM 57.0 °F 55.9 °F 96% 29.74 in 3.0 mi SSE 4.6 mph - 0.06 in Rain Light Rain
10:53 PM 59.0 °F 57.2 °F 94% 29.71 in 9.0 mi South 11.5 mph - N/A   Mostly Cloudy
11:19 PM 62.6 °F 59.0 °F 88% 29.71 in 10.0 mi South 18.4 mph 24.2 mph N/A   Mostly Cloudy
11:36 PM 62.6 °F 59.0 °F 88% 29.70 in 10.0 mi South 17.3 mph 25.3 mph N/A   Mostly Cloudy
11:53 PM 62.1 °F 59.0 °F 90% 29.68 in 10.0 mi SSW 17.3 mph - N/A   Overcast